DW5244 Weather Reports


time (UTC)temp
F
wind
direction
speed
knots
gust
knots
rain 1hr
in
rain 24hr
in
rain mn
in
humidity
%
barometer
mb
20260905020044 82 360 4.3 7.0 0.00 0.00 0.00 49 1013.4
20260905014543 82 360 7.8 10.4 0.00 0.00 0.00 48 1013.2
20260905013043 82 360 6.1 9.6 0.00 0.00 0.00 48 1013.0
20260905011544 82 360 5.2 8.7 0.00 0.00 0.00 48 1012.8
20260905010045 82 360 9.6 13.0 0.00 0.00 0.00 48 1012.8
20260905004547 82 360 11.3 15.6 0.00 0.00 0.00 47 1012.7
20260905003046 83 360 13.0 16.5 0.00 0.00 0.00 47 1012.7
20260905001540 83 360 10.4 15.6 0.00 0.00 0.00 47 1012.6
20260905000039 83 360 10.4 14.8 0.00 0.00 0.00 48 1012.7
20260904234538 84 360 11.3 15.6 0.00 0.09 0.00 47 1013.0
20260904233038 85 360 9.6 14.8 0.00 0.09 0.00 47 1012.9
20260904231539 86 360 8.7 19.1 0.00 0.09 0.00 43 1012.8
20260904230059 86 360 7.0 14.8 0.00 0.09 0.00 43 1013.0
20260904224535 86 360 12.2 15.6 0.00 0.09 0.00 42 1013.1
20260904223036 86 360 11.3 17.4 0.00 0.09 0.00 46 1012.6
20260904221535 86 360 12.2 16.5 0.00 0.09 0.00 45 1012.3
20260904220035 87 360 13.0 19.1 0.00 0.09 0.00 44 1012.3
20260904214533 88 360 11.3 17.4 0.00 0.09 0.00 40 1012.3
20260904213033 88 360 13.9 19.1 0.00 0.09 0.00 40 1012.5
20260904211534 90 11 7.8 11.3 0.00 0.09 0.00 38 1012.1
20260904210031 91 292 1.7 3.5 0.00 0.09 0.00 35 1012.3
20260904204531 92 277 4.3 10.4 0.00 0.09 0.00 33 1012.5
20260904203029 94 315 7.0 11.3 0.00 0.09 0.00 31 1012.6
20260904201527 96 268 9.6 14.8 0.00 0.09 0.00 30 1012.7
20260904200025 97 273 8.7 12.2 0.00 0.09 0.00 30 1013.1
20260904194524 96 248 1.7 7.0 0.00 0.09 0.00 31 1013.4
20260904193034 95 232 1.7 4.3 0.00 0.09 0.00 32 1013.9
20260904191521 95 246 2.6 13.0 0.00 0.09 0.00 34 1014.1
20260904190032 92 275 0.9 5.2 0.00 0.09 0.00 35 1014.3
20260904184514 95 273 3.5 9.6 0.00 0.09 0.00 32 1014.4
20260904183011 92 300 1.7 5.2 0.00 0.09 0.00 36 1014.6
20260904181508 91 250 0.9 8.7 0.00 0.09 0.00 37 1014.9
20260904180006 91 360 3.5 8.7 0.00 0.09 0.00 37 1015.1
20260904174502 91 221 0.9 3.5 0.00 0.09 0.00 38 1015.4
20260904173100 92 175 1.7 7.0 0.00 0.09 0.00 37 1015.6
20260904171554 89 222 0.9 7.8 0.00 0.09 0.00 41 1015.5
20260904170053 88 212 3.5 6.1 0.00 0.09 0.00 39 1015.7
20260904164547 87 205 1.7 7.0 0.00 0.09 0.00 44 1016.0
20260904163042 86 209 3.5 7.0 0.00 0.09 0.00 44 1016.0
20260904161543 84 360 2.6 8.7 0.00 0.09 0.00 46 1016.0
20260904160038 84 187 2.6 8.7 0.00 0.09 0.00 48 1016.1
20260904154533 83 179 3.5 6.1 0.00 0.09 0.00 48 1016.1
20260904153037 82 196 4.3 6.1 0.00 0.09 0.00 51 1016.1
20260904151529 81 204 0.9 5.2 0.00 0.09 0.00 55 1016.3
20260904150028 78 225 5.2 7.0 0.00 0.09 0.00 56 1016.2
20260904144528 78 242 2.6 6.1 0.00 0.09 0.00 58 1016.1
20260904143023 77 360 1.7 3.5 0.00 0.09 0.00 59 1016.3
20260904141521 76 360 1.7 5.2 0.00 0.09 0.00 60 1016.2
20260904140019 76 360 3.5 5.2 0.00 0.09 0.00 61 1016.0
20260904134521 74 320 3.5 7.8 0.00 0.09 0.00 64 1015.8
20260904133013 74 360 5.2 9.6 0.00 0.09 0.00 64 1015.6
20260904131510 74 360 6.1 12.2 0.00 0.09 0.00 62 1015.3
20260904130014 75 360 9.6 13.0 0.00 0.09 0.00 60 1015.1
20260904124505 75 360 5.2 9.6 0.00 0.09 0.00 59 1015.1
20260904123012 75 355 6.1 8.7 0.00 0.09 0.00 59 1014.9
20260904121503 75 355 6.1 7.8 0.00 0.09 0.00 60 1014.8
20260904120001 75 350 5.2 8.7 0.00 0.09 0.00 60 1014.8
20260904114601 75 355 7.8 10.4 0.00 0.09 0.00 60 1014.8
20260904113059 74 351 6.1 8.7 0.00 0.09 0.00 61 1014.8
20260904111557 75 355 9.6 13.9 0.00 0.09 0.00 60 1014.7
20260904110057 75 360 12.2 16.5 0.00 0.09 0.00 59 1014.6
20260904104551 76 342 12.2 16.5 0.00 0.09 0.00 57 1014.6
20260904103046 77 344 10.4 14.8 0.00 0.09 0.00 52 1014.4
20260904101544 78 355 8.7 11.3 0.00 0.09 0.00 50 1014.1
20260904100047 78 360 8.7 13.0 0.00 0.09 0.00 49 1014.1
20260904094543 78 355 7.8 10.4 0.00 0.09 0.00 49 1014.1
20260904093042 78 63 8.7 13.9 0.00 0.09 0.00 50 1014.2
20260904091541 78 360 11.3 17.4 0.00 0.09 0.00 50 1014.2
20260904090039 78 360 9.6 13.9 0.00 0.09 0.00 50 1014.0
20260904084537 78 144 11.3 17.4 0.00 0.09 0.00 52 1014.0
20260904083038 79 360 13.9 17.4 0.00 0.09 0.00 52 1014.0
20260904081546 79 360 11.3 18.2 0.00 0.09 0.00 52 1013.9
20260904080034 79 345 12.2 15.6 0.00 0.09 0.00 52 1014.1
20260904074534 79 360 13.0 16.5 0.00 0.09 0.00 53 1014.2
20260904073029 80 360 10.4 19.1 0.00 0.09 0.00 50 1014.3
20260904071525 81 360 13.9 20.0 0.00 0.09 0.00 47 1014.3
20260904070024 82 360 9.6 12.2 0.00 0.09 0.00 47 1014.2
20260904064522 82 360 8.7 11.3 0.00 0.09 0.00 47 1014.2
20260904063022 82 360 7.0 12.2 0.00 0.09 0.00 47 1014.2
20260904061537 82 360 9.6 13.0 0.00 0.09 0.00 47 1014.2
20260904060022 82 360 6.1 11.3 0.00 0.09 0.00 47 1014.2
20260904054522 81 360 6.1 11.3 0.00 0.09 0.00 48 1014.1
20260904053016 81 360 8.7 11.3 0.00 0.09 0.00 49 1014.1
20260904051514 81 360 7.8 11.3 0.00 0.09 0.00 49 1014.0
20260904050017 81 360 4.3 7.8 0.00 0.09 0.00 49 1013.7
20260904044510 80 360 2.6 3.5 0.00 0.09 0.09 50 1013.4
20260904043010 81 360 1.7 4.3 0.00 0.09 0.09 51 1013.5
20260904041508 82 344 0.0 2.6 0.00 0.09 0.09 47 1013.5
20260904040009 82 360 6.1 9.6 0.00 0.09 0.09 48 1013.4
20260904034508 82 360 8.7 11.3 0.00 0.09 0.09 47 1013.4
20260904033009 82 360 7.8 10.4 0.00 0.09 0.09 47 1013.2
20260904031507 82 360 8.7 13.0 0.00 0.09 0.09 49 1013.0
20260904030015 83 360 7.8 10.4 0.00 0.09 0.09 48 1012.8
20260904024507 83 360 7.0 10.4 0.00 0.09 0.09 47 1012.6
20260904023005 84 360 7.0 9.6 0.00 0.09 0.09 47 1012.5
20260904021508 84 344 7.0 8.7 0.00 0.09 0.09 46 1012.3